Temp
13 13 13 13 13 13 12 13 13 13 12 12 12 12 11 11 11 11 11 11 11 11 11 11 11 11 11 11 11 11 11 11 11 11 11 11 11 11 11 11 11 11
13 13 13 13 13 13 13 13 13 13 13 12 12 11 11 11 11 11 11 11 11 11 11 11 11 11 11 11 11 11 11 11 11 11 11 11 11 11 11 11 11 11
13 13 13 13 13 13 13 13 13 13 13 12 12 12 11 12 12 11 11 11 11 11 11 11 11 11 11 11 11 11 11 11 11 11 11 11 11 11 11 11 11 11
14 13 13 13 13 13 13 13 13 13 13 12 12 12 12 12 12 12 12 11 11 11 11 11 11 12 12 12 11 11 11 11 11 11 11 11 11 11 11 11 11 11
14 14 13 13 13 13 13 13 13 13 13 13 12 12 12 12 12 12 12 12 12 12 12 12 12 12 12 12 12 12 11 11 11 11 11 11 11 11 11 11 11 11
14 14 14 13 13 13 13 13 13 13 13 13 13 12 12 12 12 12 12 12 12 12 12 12 12 12 12 12 12 12 12 12 12 12 12 12 11 12 12 12 12 12
14 14 14 14 13 13 13 13 13 13 13 13 13 13 12 12 12 12 12 12 12 12 12 12 12 12 12 12 12 12 12 12 12 12 12 12 12 12 12 12 12 12
15 14 14 14 14 14 13 13 13 13 13 13 13 13 13 12 12 12 12 12 12 12 12 12 12 12 12 12 12 12 12 12 12 12 12 12 12 12 12 12 12 12
15 15 14 14 14 14 14 13 13 13 13 13 13 13 13 13 12 12 12 12 12 12 12 12 12 12 12 12 12 12 12 12 12 12 12 12 12 12 12 12 12 13
15 15 15 14 14 14 14 14 13 13 13 13 13 13 13 13 13 12 12 12 12 12 12 12 12 12 12 13 13 13 13 13 13 13 13 13 13 13 12 12 13 13
15 15 15 15 15 15 14 14 14 13 13 13 13 13 13 13 13 13 13 13 13 12 13 13 13 13 13 13 13 13 13 13 13 13 13 13 13 13 13 13 13 13
15 15 15 15 15 15 15 14 14 14 13 13 13 13 13 13 13 13 13 13 13 13 13 13 13 13 13 13 13 13 13 13 13 13 13 13 13 13 13 13 13 13
15 15 15 15 15 15 15 14 14 14 14 14 13 13 13 13 13 13 13 13 13 13 13 13 13 13 13 13 13 13 13 13 13 13 13 13 13 13 13 13 13 13
16 15 15 15 15 15 15 15 14 14 14 14 14 14 14 14 14 13 13 13 13 13 13 13 13 13 13 13 13 13 13 13 13 13 13 13 13 13 13 13 13 13
16 16 16 15 15 15 15 15 15 14 14 14 14 14 14 14 14 14 14 14 13 13 13 13 13 14 14 14 14 13 13 13 13 13 13 13 13 13 13 13 13 13
16 16 16 16 16 16 15 15 15 15 15 14 14 14 14 14 14 14 14 14 14 14 14 14 14 14 14 14 14 14 13 13 13 13 13 13 14 14 14 14 14 14
16 16 16 16 16 16 16 15 15 15 15 15 15 14 14 14 14 14 14 14 14 14 14 14 14 14 14 14 14 13 13 13 13 14 14 14 14 14 14 14 14 14
16 16 16 16 16 16 16 16 15 15 15 15 15 15 15 14 14 14 14 14 14 14 14 14 14 14 14 14 14 13 13 13 14 14 14 14 14 14 14 14 14 14
16 16 16 16 16 16 16 16 15 16 16 16 15 15 15 15 15 15 15 15 15 14 14 14 14 14 14 14 14 13 13 13 13 14 14 14 14 14 14 14 14 14
17 17 16 16 16 16 16 16 16 16 16 16 15 15 15 15 15 15 15 15 15 15 15 15 14 14 14 14 14 13 13 13 13 14 14 14 14 14 14 14 14 14
17 17 17 16 16 16 16 16 16 16 16 16 15 15 15 15 15 15 15 15 15 15 15 15 15 14 14 14 14 13 13 13 13 14 14 14 14 14 14 14 14 14
17 17 17 17 16 16 16 16 16 16 16 16 15 16 16 15 15 15 15 15 15 15 15 15 15 14 14 14 14 14 14 14 14 14 14 14 14 14 14 14 14 14
18 17 17 17 17 16 16 16 16 16 16 15 15 16 16 16 16 16 16 15 15 15 15 15 15 14 14 14 14 14 14 14 14 14 14 14 14 14 14 14 14 14
18 18 17 17 17 17 17 16 16 16 16 16 16 16 16 16 16 16 16 16 15 15 15 15 15 14 14 14 14 14 14 14 14 14 14 15 15 15 15 15 15 15
18 18 18 18 17 17 17 16 16 16 16 16 16 16 16 16 16 16 16 16 16 16 15 15 15 15 15 14 14 14 14 14 14 15 15 15 15 15 15 15 15 15
19 19 19 18 18 17 17 17 16 16 16 16 16 16 16 16 16 16 16 16 16 16 16 16 15 15 15 15 14 14 14 14 15 15 15 15 15 15 15 15 15 15
Height
3194 3196 3198 3200 3202 3204 3206 3207 3209 3211 3212 3213 3214 3215 3216 3217 3217 3218 3219 3220 3221 3222 3224 3225 3226 3227 3229 3230 3231 3232 3233 3234 3234 3235 3236 3237 3238 3238 3239 3239 3239 3239
3192 3194 3196 3198 3200 3202 3204 3206 3207 3209 3211 3212 3213 3214 3214 3215 3216 3217 3218 3219 3220 3221 3222 3224 3225 3226 3227 3228 3229 3230 3231 3232 3233 3234 3235 3236 3237 3237 3238 3238 3239 3239
3189 3192 3194 3196 3198 3201 3203 3204 3206 3208 3210 3211 3212 3213 3213 3214 3215 3216 3217 3218 3219 3220 3221 3222 3223 3225 3226 3227 3228 3229 3230 3231 3232 3233 3234 3235 3236 3236 3237 3237 3238 3238
3187 3189 3192 3194 3197 3199 3201 3203 3204 3206 3208 3209 3211 3212 3213 3213 3214 3215 3216 3217 3218 3219 3220 3221 3222 3224 3225 3226 3227 3228 3229 3230 3231 3232 3233 3233 3234 3235 3236 3236 3237 3237
3185 3187 3189 3192 3194 3197 3198 3200 3202 3204 3206 3208 3210 3211 3212 3212 3213 3214 3215 3216 3217 3218 3219 3220 3221 3222 3224 3225 3226 3227 3228 3229 3230 3231 3231 3232 3233 3233 3234 3235 3235 3236
3182 3184 3187 3189 3191 3194 3196 3198 3200 3202 3204 3206 3208 3209 3211 3211 3212 3213 3215 3216 3216 3217 3218 3219 3220 3221 3223 3224 3225 3226 3227 3228 3228 3229 3230 3231 3231 3232 3232 3233 3233 3234
3180 3182 3185 3187 3189 3191 3193 3195 3198 3200 3202 3204 3205 3207 3209 3210 3212 3213 3214 3215 3216 3217 3217 3218 3219 3220 3221 3222 3224 3225 3226 3226 3227 3228 3228 3229 3230 3230 3230 3231 3231 3232
3178 3180 3182 3184 3186 3188 3190 3193 3195 3197 3200 3201 3203 3205 3207 3209 3210 3212 3213 3214 3215 3216 3217 3217 3218 3219 3220 3221 3222 3223 3224 3225 3226 3226 3227 3228 3228 3228 3229 3229 3230 3230
3175 3177 3179 3181 3183 3185 3188 3190 3192 3195 3197 3198 3201 3203 3204 3206 3208 3210 3211 3213 3214 3215 3216 3216 3217 3218 3219 3220 3220 3221 3222 3223 3224 3225 3225 3226 3227 3227 3227 3227 3228 3228
3173 3174 3176 3178 3180 3182 3185 3188 3190 3192 3194 3196 3198 3200 3202 3204 3206 3208 3209 3210 3212 3213 3214 3215 3216 3217 3218 3218 3219 3220 3220 3221 3222 3223 3224 3224 3225 3225 3225 3225 3226 3226
3170 3172 3174 3175 3178 3180 3182 3185 3187 3189 3191 3193 3195 3197 3199 3202 3203 3205 3207 3208 3210 3211 3213 3214 3215 3216 3216 3217 3217 3218 3219 3219 3220 3221 3221 3222 3223 3223 3223 3223 3224 3224
3168 3170 3172 3174 3176 3178 3180 3183 3184 3187 3189 3191 3193 3195 3197 3199 3201 3203 3204 3206 3208 3209 3211 3212 3213 3214 3214 3215 3216 3216 3217 3217 3218 3218 3219 3219 3220 3221 3221 3221 3221 3222
3166 3168 3170 3172 3174 3176 3178 3180 3182 3184 3186 3188 3191 3192 3194 3196 3198 3200 3202 3204 3206 3207 3208 3210 3211 3211 3212 3213 3214 3214 3215 3215 3216 3216 3216 3217 3217 3218 3218 3218 3218 3219
3165 3167 3169 3171 3172 3174 3176 3178 3180 3182 3184 3186 3188 3190 3191 3193 3196 3198 3200 3201 3203 3204 3206 3207 3208 3208 3209 3211 3212 3212 3213 3213 3214 3214 3214 3214 3214 3215 3215 3215 3215 3216
3164 3165 3167 3169 3170 3172 3174 3175 3178 3180 3182 3184 3185 3187 3189 3191 3193 3195 3197 3198 3200 3201 3203 3204 3204 3205 3207 3208 3209 3210 3211 3211 3211 3211 3211 3211 3211 3212 3212 3212 3212 3213
3162 3164 3165 3167 3168 3170 3171 3173 3175 3177 3179 3181 3183 3185 3187 3189 3191 3192 3194 3195 3197 3198 3200 3201 3201 3203 3204 3206 3207 3207 3208 3208 3209 3209 3209 3208 3208 3208 3209 3209 3210 3210
3161 3162 3163 3165 3166 3168 3169 3171 3173 3175 3176 3178 3180 3182 3184 3186 3188 3189 3191 3192 3194 3196 3197 3198 3199 3200 3202 3203 3204 3205 3205 3205 3206 3206 3206 3206 3206 3206 3206 3207 3207 3208
3159 3160 3161 3163 3164 3166 3167 3169 3171 3172 3174 3175 3177 3180 3182 3184 3185 3187 3188 3190 3191 3193 3194 3195 3196 3198 3199 3201 3201 3202 3203 3203 3203 3204 3204 3204 3204 3204 3204 3205 3205 3205
3156 3158 3159 3160 3162 3164 3166 3167 3168 3170 3171 3173 3175 3177 3180 3181 3183 3185 3186 3187 3188 3190 3191 3192 3194 3196 3197 3198 3199 3200 3201 3201 3201 3201 3201 3202 3202 3202 3202 3202 3202 3202
3153 3155 3156 3158 3160 3162 3163 3165 3166 3167 3169 3171 3173 3175 3176 3178 3180 3182 3184 3185 3185 3187 3188 3190 3191 3193 3195 3196 3197 3198 3199 3199 3199 3199 3198 3199 3199 3199 3200 3200 3200 3200
3150 3151 3153 3155 3157 3159 3160 3162 3163 3165 3167 3168 3170 3172 3173 3175 3178 3179 3181 3182 3183 3184 3186 3187 3189 3190 3192 3193 3195 3196 3197 3197 3196 3196 3196 3196 3196 3197 3197 3197 3198 3197
3147 3148 3150 3152 3154 3155 3157 3159 3160 3162 3164 3166 3167 3169 3171 3172 3174 3176 3177 3179 3181 3182 3183 3184 3186 3188 3189 3191 3192 3193 3194 3194 3193 3193 3193 3193 3193 3194 3194 3194 3194 3194
3144 3146 3147 3149 3151 3152 3153 3155 3158 3160 3162 3163 3164 3166 3168 3169 3171 3173 3175 3176 3178 3178 3179 3180 3183 3185 3186 3187 3189 3190 3190 3190 3190 3190 3190 3190 3190 3191 3191 3191 3191 3191
3141 3143 3144 3146 3147 3148 3150 3152 3154 3156 3158 3160 3161 3163 3165 3166 3168 3170 3171 3173 3174 3175 3176 3177 3179 3181 3182 3183 3185 3186 3186 3186 3186 3186 3186 3186 3187 3187 3187 3187 3187 3187
3139 3140 3142 3143 3144 3146 3147 3149 3151 3152 3154 3156 3158 3160 3162 3163 3165 3166 3168 3169 3170 3172 3173 3174 3174 3176 3177 3178 3180 3181 3182 3182 3182 3182 3182 3182 3182 3183 3183 3183 3183 3183
3136 3137 3139 3140 3141 3143 3144 3146 3147 3149 3151 3152 3154 3156 3158 3160 3161 3162 3164 3165 3167 3168 3169 3170 3171 3172 3173 3174 3175 3176 3176 3177 3177 3176 3177 3177 3177 3177 3177 3177 3177 3177
Wind_Speed
24 24 24 22 21 20 19 18 17 16 15 13 13 13 11 13 15 15 14 14 15 16 16 17 16 16 14 14 15 15 15 15 14 12 11 10 8 6 5 4 3 3
25 25 24 24 23 21 19 19 18 17 15 13 13 14 13 14 16 16 16 15 15 15 16 16 16 16 15 14 14 15 16 15 15 13 12 11 9 8 6 5 3 2
26 25 25 24 23 21 20 19 19 18 16 15 15 15 15 15 14 15 16 15 15 15 15 15 16 16 15 14 14 15 16 16 16 15 14 12 11 10 8 7 6 4
27 26 25 23 22 21 21 20 20 20 18 17 17 17 16 15 13 13 14 14 13 13 14 14 14 14 14 14 13 14 15 15 16 16 16 15 13 12 11 9 8 6
27 26 25 24 23 22 23 22 21 21 19 17 17 17 17 15 14 13 13 13 12 11 11 11 12 12 12 12 13 13 13 13 14 15 16 16 15 14 13 12 10 9
28 27 26 25 25 24 24 23 22 22 21 19 18 18 17 16 15 14 13 12 11 10 10 10 10 10 9 9 10 11 12 12 13 14 15 16 16 16 16 14 13 11
29 28 27 26 26 26 25 24 23 23 22 21 20 19 18 17 16 15 14 13 12 11 10 9 9 9 8 7 7 8 9 9 11 12 13 14 16 17 17 16 15 14
29 29 28 27 27 27 26 26 25 24 23 23 23 21 19 18 17 16 16 15 14 13 12 10 9 8 8 7 6 6 6 6 6 7 8 11 13 15 17 17 17 17
29 30 30 29 29 28 27 27 26 25 24 25 24 23 21 19 18 18 17 17 16 15 14 13 11 10 9 7 6 5 5 4 5 5 5 7 9 11 14 17 18 18
29 30 31 31 30 30 29 28 27 26 26 25 24 24 24 21 20 19 18 18 17 16 16 15 13 12 10 9 7 7 6 6 7 7 7 7 7 9 11 14 17 18
29 30 31 31 31 30 29 28 28 27 27 26 25 25 25 23 22 21 20 19 18 16 16 15 14 14 13 12 10 10 10 10 10 10 9 9 9 10 11 13 14 16
27 29 29 30 30 30 29 29 29 28 27 27 26 25 25 25 24 23 22 20 18 16 16 15 15 15 15 14 13 13 12 12 12 12 12 12 12 13 13 14 14 14
25 27 27 28 29 29 29 29 29 29 28 27 26 25 25 25 25 24 23 22 20 18 17 16 16 16 16 15 14 14 13 13 13 14 15 15 15 16 16 17 17 16
22 23 24 25 27 27 28 28 28 28 28 27 26 26 25 25 25 24 24 22 21 20 19 18 18 18 17 16 15 14 14 14 15 16 17 18 18 18 18 19 19 18
21 21 22 23 24 26 27 27 27 28 28 27 27 27 26 25 24 24 24 23 22 22 21 20 20 19 18 16 15 15 16 16 16 17 18 19 19 19 19 19 19 19
21 21 21 22 22 23 24 25 26 26 27 27 27 27 26 25 25 24 24 24 23 22 21 21 20 19 17 16 16 16 17 18 17 17 17 18 18 17 17 18 18 18
23 22 22 22 22 22 23 23 24 25 26 26 27 26 26 26 25 25 25 24 23 22 21 21 20 18 16 16 16 16 16 16 16 15 15 16 16 16 15 15 16 17
25 24 24 24 23 23 22 22 23 24 25 26 26 26 26 26 25 25 24 23 23 22 21 21 19 17 17 16 15 14 14 14 14 13 12 13 13 13 13 13 14 15
28 27 26 26 25 24 23 23 23 24 24 25 25 25 25 26 25 24 23 23 23 22 22 21 19 17 16 16 14 13 13 13 13 13 13 13 13 14 14 15 15 16
31 30 29 28 27 26 25 24 24 24 24 24 24 24 25 25 24 24 23 23 24 23 22 21 19 17 16 16 15 13 13 14 15 16 16 16 17 17 17 17 17 18
32 32 32 31 30 29 28 27 26 25 25 25 25 25 25 24 23 23 24 24 24 24 23 21 19 18 17 16 15 15 15 16 18 20 20 20 20 20 20 19 19 20
32 33 33 33 33 32 31 30 28 27 26 26 26 26 26 25 24 24 24 24 24 25 24 22 20 19 19 18 17 17 18 20 21 22 23 23 22 22 22 22 22 23
27 29 31 33 33 34 34 33 32 30 28 28 27 27 27 26 26 25 24 24 25 25 25 24 22 21 21 20 20 20 21 22 23 24 24 24 24 23 24 25 25 26
20 23 26 29 32 34 35 35 35 34 32 31 30 29 28 28 27 27 26 26 26 26 26 26 24 23 23 23 23 23 24 24 25 26 26 25 25 25 26 27 27 28
15 16 19 23 27 30 32 34 35 36 36 35 33 32 30 30 29 29 29 28 28 27 27 27 27 26 26 26 26 25 26 26 27 27 27 27 27 28 28 29 30 30
15 15 14 16 20 24 27 29 31 34 36 37 37 35 34 33 32 32 31 31 30 29 29 29 29 29 29 28 28 28 28 28 29 29 29 29 29 30 30 31 32 33
Wind_Direction
209 213 217 220 220 218 218 218 218 216 213 208 210 215 211 203 205 208 206 206 206 206 205 207 209 209 207 202 195 193 195 194 190 187 184 181 178 173 167 160 139 106
209 211 214 218 220 219 217 218 220 218 213 207 204 206 206 202 201 202 202 203 203 205 205 205 208 209 207 203 197 195 198 199 199 197 194 193 191 192 196 199 196 189
209 211 213 216 219 220 219 219 220 220 214 207 204 204 206 206 201 198 201 204 203 204 207 206 206 207 206 204 200 198 201 203 204 205 205 205 205 205 212 217 220 227
209 211 213 215 217 221 223 222 220 222 219 210 205 205 207 208 203 197 198 202 204 203 205 207 206 205 205 205 204 201 203 205 208 211 212 215 216 216 221 227 229 233
210 211 212 213 216 220 224 224 220 221 223 216 209 207 210 211 207 202 196 197 201 198 198 201 203 205 203 203 203 203 205 207 210 214 217 221 225 227 229 231 232 234
209 211 212 212 214 217 222 225 222 221 223 222 217 212 212 213 211 209 203 197 197 196 191 189 191 197 197 195 194 196 202 207 212 216 217 221 227 232 236 237 236 238
209 211 212 213 214 216 219 223 223 222 221 222 222 218 215 214 213 213 210 204 201 200 196 191 188 188 191 190 184 181 188 198 208 216 218 221 225 230 235 239 240 243
209 210 212 214 215 217 218 220 222 222 221 222 223 222 219 217 215 214 213 211 208 206 205 205 202 199 200 197 187 182 183 187 199 210 216 222 226 230 234 238 241 243
210 210 211 212 215 217 218 220 222 222 221 222 222 224 223 221 217 216 215 215 214 211 210 211 212 214 217 212 205 207 210 213 222 226 227 228 229 230 233 237 239 241
212 212 212 213 214 216 217 218 221 222 223 223 222 223 224 223 222 220 219 219 218 217 215 214 215 218 224 226 228 235 242 247 252 252 253 251 245 240 239 238 239 239
214 214 214 215 215 216 216 217 219 222 224 224 224 224 223 224 225 225 224 223 221 221 219 218 219 222 227 231 237 245 252 258 263 264 265 263 259 255 251 247 243 239
215 216 217 218 218 218 217 217 219 221 223 225 225 226 225 224 225 227 227 227 225 225 224 221 222 225 229 233 239 247 253 259 265 269 271 270 267 263 258 254 249 243
215 217 219 220 221 221 220 219 220 221 223 225 226 227 227 225 226 227 228 229 229 230 230 228 228 230 232 236 241 247 254 260 267 271 272 272 270 267 263 259 254 248
214 217 220 222 224 224 223 223 223 224 225 225 226 228 229 227 227 228 229 230 231 233 234 234 236 237 238 241 245 250 257 264 270 272 271 269 268 266 263 261 258 255
213 216 219 222 224 225 225 225 225 226 226 226 226 228 229 229 229 229 229 230 231 233 235 236 239 241 243 246 251 259 266 271 272 271 268 267 264 262 260 259 259 258
214 216 218 221 224 226 226 227 227 228 227 227 227 228 228 229 230 229 230 230 231 232 234 237 240 243 247 252 259 265 270 270 268 264 262 261 260 258 257 257 258 259
217 217 218 220 223 225 226 227 228 229 230 230 229 228 227 227 228 230 231 231 233 234 235 237 241 246 252 257 261 263 264 263 260 256 254 254 256 258 259 261 262 263
219 219 219 220 222 224 225 226 228 230 231 232 231 229 228 227 228 230 231 233 235 236 237 239 242 247 252 254 252 251 252 255 256 256 254 254 258 263 267 268 269 268
222 222 222 222 223 224 225 225 227 229 231 232 232 231 230 229 229 229 231 234 236 237 239 241 242 242 241 240 237 237 242 250 258 261 260 260 261 264 267 270 271 273
225 225 224 224 224 225 225 225 226 228 231 233 233 232 232 232 230 230 230 233 237 238 239 239 236 231 228 227 228 232 241 251 259 263 263 262 263 265 268 270 272 274
225 226 226 226 226 226 226 225 226 227 229 232 233 234 234 234 234 233 233 234 237 239 239 234 228 224 223 225 229 236 245 253 257 260 262 263 265 268 271 272 273 274
223 225 226 227 227 228 229 228 227 227 227 229 231 234 235 235 235 235 234 235 236 237 237 232 227 226 228 230 235 241 248 253 256 258 261 263 266 269 272 273 275 275
218 221 224 226 227 229 230 230 229 228 228 229 230 232 233 234 235 235 235 235 235 235 235 234 232 233 236 239 243 248 252 255 258 261 264 266 269 272 275 277 278 280
212 213 216 220 225 228 230 230 231 230 229 229 230 232 233 234 235 235 235 235 235 235 237 238 239 240 244 247 250 254 257 260 263 266 267 269 271 274 277 280 282 284
218 214 211 213 218 223 227 229 230 231 231 231 231 232 234 234 235 236 236 236 238 239 240 242 244 246 249 253 257 261 264 266 269 270 271 273 277 279 282 284 286 288
232 230 224 218 214 216 221 226 229 230 231 231 231 232 233 234 235 236 238 238 240 242 244 245 248 251 254 258 262 265 268 270 272 273 275 279 283 286 289 291 292 294